Location: Andrest
(43.3200°N, 0.0641°E)
Time: 13:51:55
(UTC+00:00)

Cosmos 44 Rocket - Pass Details

Date: 01 December 2020
Orbit: 638 x 751 km, 65.1° (Epoch: 25 January)

Event Time Altitude Azimuth Distance (km) Brightness Sun altitude
Rises 17:35:35 0° 332° (NNW) 3,165 6.8 -12.5°
Reaches altitude 10° 17:38:14 10° 344° (NNW) 2,253 5.9 -13.0°
Maximum altitude 17:42:44 29° 44° (NE) 1,347 4.3 -13.8°
Enters shadow 17:45:10 20° 86° (E) 1,669 4.6 -14.2°
